Location: Unspecified
(43.4354°N, 0.0000°E)
Time: 09:03:09
(UTC+00:00)

Courier 1B - Pass Details

Date: 25 June 2019
Orbit: 963 x 1209 km, 28.3° (Epoch: 17 July)

Event Time Altitude Azimuth Distance (km) Brightness Sun altitude
Rises 21:26:12 0° 253° (WSW) 3,924 10.9 -14.1°
Reaches altitude 10° 21:30:09 10° 234° (SW) 3,013 10.1 -14.6°
Maximum altitude 21:34:24 16° 198° (SSW) 2,621 9.4 -15.0°
Enters shadow 21:36:39 14° 179° (S) 2,766 9.4 -15.2°
Drops below altitude 10° 21:38:44 10° 164° (SSE) 3,094 - -15.5°
Sets 21:42:53 0° 144° (SE) 4,083 - -15.9°
